HULIANWAN GAOGUI-02 (H*)

Last updated on Sat Jul 05 2025 00:02:48 GMT+0000 (Coordinated Universal Time)

1 60327U 24135A 25185.53849822 -.00000158 00000+0 00000+0 0 9998 2 60327 0.0352 100.1577 0000947 320.1797 209.5256 1.00273159 4012
UTC large
Height (km)
Speed (km/s)
/
Latitude / Longitude
Inclination (degrees)
Orbital Period (minutes)
Azimuth
Elevation
Range (km)
Doppler Factor

Next 0 passes for location: London (51.5072 / 0.1276)

Sorry there are no passes over London.